Location: Düngen
(52.0952°N, 10.0219°E)
Time: 19:38:46
(UTC+00:00)

Cosmos 1140 Rocket - Pass Details

Date: 11 March 2026
Orbit: 739 x 762 km, 74.1° (Epoch: 20 April)

Event Time Altitude Azimuth Distance (km) Brightness Sun altitude
Rises 18:17:26 0° 178° (S) 3,202 6.6 -10.0°
Reaches altitude 10° 18:19:55 10° 170° (S) 2,284 5.8 -10.4°
Maximum altitude 18:24:40 38° 104° (ESE) 1,162 3.9 -11.1°
Drops below altitude 10° 18:29:27 10° 38° (NE) 2,307 5.7 -11.9°
Sets 18:31:58 0° 30° (NNE) 3,238 6.5 -12.2°
